Station Historical Data
Daily Summary for March 6, 2017 Units:  English    Metric   Both
« Previous Day
Next Day »
Daily Weekly Monthly Yearly Custom
  High: Low: Average:
Temperature: 59.9 °F 25.9 °F 46.4 °F
Dew Point: 46.6 °F 14.4 °F 31.3 °F
Humidity: 79% 38% 57%
Wind Speed: 14.0mph 0.0mph 3.7mph
Wind Gust: 17.0mph - -
Wind- - South
Pressure: 30.39 in 30.07 in -
Precipitation: 0.00 in    
Historical Graphs
 
 
Tabular Data for March 6, 2017
Time Temperature Dew Point Pressure Wind Wind Speed Wind Gust Humidity Rainfall Rate (Hourly)
00:04 27.0 °F 15.3 °F 30.38 in Calm     61% 0.00 in
00:09 27.0 °F 15.3 °F 30.39 in Calm     61% 0.00 in
00:14 26.9 °F 15.6 °F 30.39 in Calm     62% 0.00 in
00:19 26.7 °F 15.0 °F 30.39 in Calm     61% 0.00 in
00:24 26.7 °F 15.0 °F 30.39 in Calm     61% 0.00 in
00:29 26.4 °F 15.5 °F 30.39 in Calm     63% 0.00 in
00:34 26.2 °F 15.3 °F 30.39 in Calm     63% 0.00 in
00:39 26.0 °F 15.5 °F 30.39 in Calm     64% 0.00 in
00:44 25.9 °F 15.7 °F 30.38 in Calm     65% 0.00 in
00:49 26.4 °F 15.9 °F 30.38 in Calm     64% 0.00 in
00:54 26.4 °F 15.9 °F 30.38 in Calm     64% 0.00 in
00:59 26.6 °F 16.4 °F 30.38 in Calm     65% 0.00 in
01:04 26.7 °F 16.5 °F 30.38 in Calm     65% 0.00 in
01:09 27.0 °F 16.4 °F 30.37 in Calm     64% 0.00 in
01:14 27.0 °F 16.4 °F 30.37 in Calm     64% 0.00 in
01:19 27.2 °F 16.3 °F 30.37 in Calm     63% 0.00 in
01:24 27.4 °F 16.1 °F 30.37 in Calm   3.0 mph 62% 0.00 in
01:29 27.5 °F 15.8 °F 30.37 in NE 1.0 mph 3.0 mph 61% 0.00 in
01:34 27.6 °F 15.9 °F 30.37 in NE 1.0 mph 3.0 mph 61% 0.00 in
01:39 27.8 °F 16.1 °F 30.37 in ENE 2.0 mph 5.0 mph 61% 0.00 in
01:44 28.0 °F 15.9 °F 30.38 in NE 2.0 mph 5.0 mph 60% 0.00 in
01:49 28.0 °F 16.3 °F 30.38 in North 2.0 mph 3.0 mph 61% 0.00 in
01:54 28.1 °F 16.4 °F 30.38 in NE 3.0 mph 4.0 mph 61% 0.00 in
01:59 28.1 °F 16.0 °F 30.37 in NE 2.0 mph 4.0 mph 60% 0.00 in
02:04 28.2 °F 16.1 °F 30.37 in NE 1.0 mph 4.0 mph 60% 0.00 in
02:09 28.3 °F 15.8 °F 30.36 in NE 1.0 mph 3.0 mph 59% 0.00 in
02:14 28.5 °F 15.6 °F 30.36 in ENE 2.0 mph 4.0 mph 58% 0.00 in
02:19 28.8 °F 15.9 °F 30.35 in ENE 2.0 mph 5.0 mph 58% 0.00 in
02:24 28.9 °F 16.4 °F 30.35 in ENE 2.0 mph 5.0 mph 59% 0.00 in
02:29 29.1 °F 16.1 °F 30.34 in ENE 2.0 mph 5.0 mph 58% 0.00 in
02:34 29.4 °F 15.6 °F 30.34 in East 3.0 mph 10.0 mph 56% 0.00 in
02:39 29.9 °F 15.3 °F 30.34 in SSE 3.0 mph 5.0 mph 54% 0.00 in
02:44 30.6 °F 15.0 °F 30.34 in East 5.0 mph 8.0 mph 52% 0.00 in
02:49 31.0 °F 14.5 °F 30.33 in ESE 3.0 mph 7.0 mph 50% 0.00 in
02:54 31.4 °F 14.4 °F 30.33 in SE 1.0 mph 6.0 mph 49% 0.00 in
02:59 31.7 °F 14.7 °F 30.33 in ESE 3.0 mph 5.0 mph 49% 0.00 in
03:04 32.0 °F 14.5 °F 30.34 in South 2.0 mph 7.0 mph 48% 0.00 in
03:09 32.1 °F 14.6 °F 30.34 in NE 3.0 mph 3.0 mph 48% 0.00 in
03:14 32.2 °F 15.2 °F 30.34 in East 1.0 mph 3.0 mph 49% 0.00 in
03:19 32.1 °F 15.1 °F 30.34 in Calm   5.0 mph 49% 0.00 in
03:24 32.2 °F 15.2 °F 30.34 in Calm   5.0 mph 49% 0.00 in
03:29 32.2 °F 15.2 °F 30.34 in Calm   2.0 mph 49% 0.00 in
03:34 32.1 °F 15.1 °F 30.33 in Calm   2.0 mph 49% 0.00 in
03:39 32.2 °F 15.2 °F 30.33 in Calm   2.0 mph 49% 0.00 in
03:44 32.1 °F 16.0 °F 30.34 in Calm   1.0 mph 51% 0.00 in
03:49 32.2 °F 16.1 °F 30.34 in Calm     51% 0.00 in
03:54 32.1 °F 16.0 °F 30.34 in Calm     51% 0.00 in
03:59 32.1 °F 15.5 °F 30.34 in Calm     50% 0.00 in
04:04 32.1 °F 16.4 °F 30.34 in Calm     52% 0.00 in
04:09 32.1 °F 16.0 °F 30.33 in ENE 1.0 mph 3.0 mph 51% 0.00 in
04:14 32.2 °F 16.5 °F 30.34 in ENE 1.0 mph 3.0 mph 52% 0.00 in
04:19 32.3 °F 16.6 °F 30.33 in ENE 1.0 mph 3.0 mph 52% 0.00 in
04:24 32.4 °F 16.3 °F 30.33 in East 2.0 mph 5.0 mph 51% 0.00 in
04:29 32.5 °F 16.4 °F 30.33 in East 2.0 mph 5.0 mph 51% 0.00 in
04:34 32.5 °F 16.4 °F 30.33 in East 1.0 mph 5.0 mph 51% 0.00 in
04:39 32.7 °F 16.5 °F 30.32 in East 1.0 mph 6.0 mph 51% 0.00 in
04:44 32.8 °F 17.1 °F 30.33 in ENE 2.0 mph 4.0 mph 52% 0.00 in
04:49 33.0 °F 16.8 °F 30.33 in ESE 3.0 mph 4.0 mph 51% 0.00 in
04:54 33.0 °F 16.8 °F 30.32 in SE 1.0 mph 6.0 mph 51% 0.00 in
04:59 33.2 °F 17.0 °F 30.32 in SE 2.0 mph 5.0 mph 51% 0.00 in
05:04 33.4 °F 17.2 °F 30.32 in East 1.0 mph 6.0 mph 51% 0.00 in
05:09 33.5 °F 16.8 °F 30.32 in ENE 4.0 mph 7.0 mph 50% 0.00 in
05:14 33.7 °F 17.0 °F 30.33 in WSW 2.0 mph 6.0 mph 50% 0.00 in
05:19 33.9 °F 17.7 °F 30.33 in SW 1.0 mph 6.0 mph 51% 0.00 in
05:24 34.0 °F 17.3 °F 30.32 in SE 1.0 mph 5.0 mph 50% 0.00 in
05:29 34.1 °F 17.4 °F 30.32 in East 2.0 mph 5.0 mph 50% 0.00 in
05:34 34.3 °F 18.0 °F 30.31 in ESE 2.0 mph 5.0 mph 51% 0.00 in
05:39 34.5 °F 17.8 °F 30.31 in ESE 2.0 mph 6.0 mph 50% 0.00 in
05:44 34.6 °F 17.8 °F 30.31 in SE 3.0 mph 6.0 mph 50% 0.00 in
05:49 34.7 °F 17.9 °F 30.31 in SE 1.0 mph 7.0 mph 50% 0.00 in
05:54 34.9 °F 18.1 °F 30.31 in ESE 2.0 mph 6.0 mph 50% 0.00 in
05:59 35.1 °F 18.3 °F 30.30 in SE 2.0 mph 5.0 mph 50% 0.00 in
06:04 35.2 °F 18.4 °F 30.30 in SSE 5.0 mph 6.0 mph 50% 0.00 in
06:09 35.4 °F 18.6 °F 30.29 in SE 3.0 mph 6.0 mph 50% 0.00 in
06:14 35.4 °F 18.6 °F 30.29 in ESE 3.0 mph 5.0 mph 50% 0.00 in
06:19 35.7 °F 18.9 °F 30.29 in SSE 2.0 mph 6.0 mph 50% 0.00 in
06:24 35.9 °F 19.0 °F 30.29 in ESE 2.0 mph 6.0 mph 50% 0.00 in
06:29 35.9 °F 19.0 °F 30.28 in ESE 2.0 mph 5.0 mph 50% 0.00 in
06:34 36.1 °F 19.2 °F 30.28 in ESE 2.0 mph 5.0 mph 50% 0.00 in
06:39 36.2 °F 19.8 °F 30.29 in East 1.0 mph 5.0 mph 51% 0.00 in
06:44 36.4 °F 19.5 °F 30.29 in ESE 1.0 mph 5.0 mph 50% 0.00 in
06:49 36.6 °F 19.7 °F 30.29 in Calm   4.0 mph 50% 0.00 in
06:54 36.7 °F 20.3 °F 30.28 in ESE 1.0 mph 4.0 mph 51% 0.00 in
07:04 37.0 °F 20.5 °F 30.27 in Calm   5.0 mph 51% 0.00 in
07:09 37.1 °F 20.6 °F 30.27 in East 3.0 mph 5.0 mph 51% 0.00 in
07:14 37.3 °F 20.8 °F 30.27 in East 1.0 mph 5.0 mph 51% 0.00 in
07:19 37.5 °F 20.5 °F 30.27 in ESE 2.0 mph 3.0 mph 50% 0.00 in
07:24 37.9 °F 21.4 °F 30.28 in ESE 1.0 mph 3.0 mph 51% 0.00 in
07:29 38.0 °F 21.0 °F 30.27 in ESE 1.0 mph 5.0 mph 50% 0.00 in
07:34 38.2 °F 21.2 °F 30.27 in ESE 1.0 mph 5.0 mph 50% 0.00 in
07:39 38.3 °F 21.3 °F 30.27 in SE 1.0 mph 4.0 mph 50% 0.00 in
07:44 38.6 °F 21.5 °F 30.27 in SE 1.0 mph 4.0 mph 50% 0.00 in
07:49 38.9 °F 21.8 °F 30.27 in SE 1.0 mph 4.0 mph 50% 0.00 in
07:54 39.1 °F 22.0 °F 30.27 in SE 1.0 mph 4.0 mph 50% 0.00 in
07:59 39.4 °F 21.8 °F 30.27 in SE 3.0 mph 4.0 mph 49% 0.00 in
08:04 39.6 °F 22.0 °F 30.27 in ESE 2.0 mph 4.0 mph 49% 0.00 in
08:09 40.0 °F 22.4 °F 30.27 in SE 3.0 mph 5.0 mph 49% 0.00 in
08:14 40.3 °F 22.6 °F 30.27 in SE 1.0 mph 4.0 mph 49% 0.00 in
08:19 40.6 °F 22.9 °F 30.27 in South 1.0 mph 5.0 mph 49% 0.00 in
08:24 40.8 °F 23.1 °F 30.27 in SE 1.0 mph 3.0 mph 49% 0.00 in
08:29 41.1 °F 22.9 °F 30.27 in Calm   3.0 mph 48% 0.00 in
08:34 41.5 °F 23.7 °F 30.27 in SE 1.0 mph 3.0 mph 49% 0.00 in
08:39 41.9 °F 24.1 °F 30.27 in SE 1.0 mph 2.0 mph 49% 0.00 in
08:44 42.2 °F 23.4 °F 30.27 in SE 1.0 mph 3.0 mph 47% 0.00 in
08:49 42.6 °F 24.3 °F 30.26 in SE 2.0 mph 5.0 mph 48% 0.00 in
08:54 43.0 °F 24.1 °F 30.27 in SE 2.0 mph 5.0 mph 47% 0.00 in
08:59 43.5 °F 24.6 °F 30.27 in Calm   3.0 mph 47% 0.00 in
09:04 44.1 °F 24.6 °F 30.27 in SSE 1.0 mph 3.0 mph 46% 0.00 in
09:09 44.5 °F 25.0 °F 30.27 in South 1.0 mph 4.0 mph 46% 0.00 in
09:14 44.8 °F 25.3 °F 30.27 in South 1.0 mph 4.0 mph 46% 0.00 in
09:19 45.2 °F 25.1 °F 30.27 in Calm   2.0 mph 45% 0.00 in
09:24 45.5 °F 25.4 °F 30.27 in South 1.0 mph 3.0 mph 45% 0.00 in
09:29 46.5 °F 26.3 °F 30.27 in South 1.0 mph 3.0 mph 45% 0.00 in
09:34 47.5 °F 26.6 °F 30.27 in South 1.0 mph 3.0 mph 44% 0.00 in
09:39 48.0 °F 27.1 °F 30.27 in SSW 2.0 mph 5.0 mph 44% 0.00 in
09:44 48.1 °F 26.6 °F 30.27 in SSW 2.0 mph 5.0 mph 43% 0.00 in
09:49 48.1 °F 27.2 °F 30.27 in SSW 2.0 mph 5.0 mph 44% 0.00 in
09:54 47.9 °F 26.5 °F 30.27 in SSW 2.0 mph 5.0 mph 43% 0.00 in
09:59 47.8 °F 26.4 °F 30.27 in SW 1.0 mph 4.0 mph 43% 0.00 in
10:04 47.8 °F 27.5 °F 30.27 in Calm   3.0 mph 45% 0.00 in
10:09 48.0 °F 27.1 °F 30.27 in SSW 1.0 mph 4.0 mph 44% 0.00 in
10:14 48.5 °F 28.6 °F 30.27 in SSW 1.0 mph 4.0 mph 46% 0.00 in
10:19 49.1 °F 28.1 °F 30.26 in SSW 1.0 mph 3.0 mph 44% 0.00 in
10:24 50.0 °F 28.9 °F 30.26 in South 2.0 mph 5.0 mph 44% 0.00 in
10:29 51.1 °F 29.4 °F 30.26 in South 3.0 mph 6.0 mph 43% 0.00 in
10:34 51.7 °F 29.3 °F 30.26 in South 3.0 mph 5.0 mph 42% 0.00 in
10:39 52.0 °F 29.6 °F 30.25 in SSW 2.0 mph 7.0 mph 42% 0.00 in
10:44 52.6 °F 29.5 °F 30.25 in SSW 4.0 mph 8.0 mph 41% 0.00 in
10:49 53.1 °F 30.0 °F 30.25 in SSW 4.0 mph 8.0 mph 41% 0.00 in
10:54 53.5 °F 31.0 °F 30.25 in SSW 3.0 mph 7.0 mph 42% 0.00 in
10:59 53.8 °F 30.6 °F 30.25 in SSW 3.0 mph 8.0 mph 41% 0.00 in
11:04 53.9 °F 30.1 °F 30.25 in SSW 4.0 mph 8.0 mph 40% 0.00 in
11:09 55.3 °F 31.4 °F 30.24 in South 3.0 mph 8.0 mph 40% 0.00 in
11:14 56.7 °F 32.0 °F 30.24 in WSW 5.0 mph 11.0 mph 39% 0.00 in
11:19 58.0 °F 32.5 °F 30.24 in SSW 6.0 mph 9.0 mph 38% 0.00 in
11:24 57.7 °F 33.5 °F 30.24 in SW 5.0 mph 10.0 mph 40% 0.00 in
11:29 57.4 °F 32.6 °F 30.24 in SW 5.0 mph 12.0 mph 39% 0.00 in
11:34 57.4 °F 32.6 °F 30.24 in SW 6.0 mph 12.0 mph 39% 0.00 in
11:39 57.4 °F 33.9 °F 30.23 in WSW 6.0 mph 12.0 mph 41% 0.00 in
11:44 57.9 °F 34.3 °F 30.23 in WSW 3.0 mph 12.0 mph 41% 0.00 in
11:49 58.2 °F 34.6 °F 30.23 in SSW 6.0 mph 13.0 mph 41% 0.00 in
11:54 58.2 °F 34.6 °F 30.23 in WSW 4.0 mph 13.0 mph 41% 0.00 in
11:59 58.2 °F 34.6 °F 30.23 in SW 7.0 mph 14.0 mph 41% 0.00 in
12:04 58.5 °F 35.5 °F 30.23 in SW 7.0 mph 14.0 mph 42% 0.00 in
12:09 59.3 °F 35.0 °F 30.23 in SW 7.0 mph 16.0 mph 40% 0.00 in
12:14 58.3 °F 34.7 °F 30.23 in SW 7.0 mph 16.0 mph 41% 0.00 in
12:19 58.3 °F 34.7 °F 30.22 in South 7.0 mph 15.0 mph 41% 0.00 in
12:24 58.3 °F 35.3 °F 30.22 in WNW 5.0 mph 12.0 mph 42% 0.00 in
12:29 58.2 °F 35.8 °F 30.22 in WSW 6.0 mph 14.0 mph 43% 0.00 in
12:34 59.9 °F 36.7 °F 30.22 in SW 6.0 mph 15.0 mph 42% 0.00 in
12:39 59.7 °F 37.7 °F 30.22 in SW 6.0 mph 15.0 mph 44% 0.00 in
12:44 59.7 °F 36.6 °F 30.21 in SW 7.0 mph 13.0 mph 42% 0.00 in
12:49 58.9 °F 35.8 °F 30.21 in SSW 3.0 mph 14.0 mph 42% 0.00 in
12:54 58.2 °F 35.8 °F 30.21 in SW 11.0 mph 15.0 mph 43% 0.00 in
12:59 58.2 °F 36.9 °F 30.21 in WSW 6.0 mph 12.0 mph 45% 0.00 in
13:04 58.5 °F 36.1 °F 30.21 in SW 6.0 mph 12.0 mph 43% 0.00 in
13:09 58.0 °F 36.8 °F 30.20 in SW 6.0 mph 15.0 mph 45% 0.00 in
13:14 57.8 °F 37.7 °F 30.20 in SW 6.0 mph 15.0 mph 47% 0.00 in
13:19 57.5 °F 37.4 °F 30.20 in SW 5.0 mph 10.0 mph 47% 0.00 in
13:24 57.8 °F 36.6 °F 30.20 in SW 5.0 mph 11.0 mph 45% 0.00 in
13:29 57.5 °F 35.7 °F 30.19 in SSW 5.0 mph 10.0 mph 44% 0.00 in
13:34 57.7 °F 35.9 °F 30.19 in SW 8.0 mph 10.0 mph 44% 0.00 in
13:39 57.7 °F 35.3 °F 30.19 in SSW 5.0 mph 11.0 mph 43% 0.00 in
13:44 58.0 °F 35.0 °F 30.19 in SSW 5.0 mph 11.0 mph 42% 0.00 in
13:49 58.0 °F 35.0 °F 30.19 in SW 7.0 mph 12.0 mph 42% 0.00 in
13:54 57.6 °F 34.7 °F 30.20 in SSW 3.0 mph 12.0 mph 42% 0.00 in
13:59 57.6 °F 35.2 °F 30.20 in WSW 2.0 mph 9.0 mph 43% 0.00 in
14:04 57.3 °F 36.1 °F 30.20 in SW 5.0 mph 11.0 mph 45% 0.00 in
14:05 57.3 °F 36.1 °F 30.20 in SW 3.0 mph 11.0 mph 45% 0.00 in
14:14 56.3 °F 36.8 °F 30.19 in SW 5.0 mph 14.0 mph 48% 0.00 in
14:19 55.9 °F 38.5 °F 30.19 in SW 6.0 mph 14.0 mph 52% 0.00 in
14:24 55.4 °F 39.5 °F 30.19 in SW 5.0 mph 8.0 mph 55% 0.00 in
14:29 55.2 °F 37.9 °F 30.19 in SW 5.0 mph 9.0 mph 52% 0.00 in
14:34 55.4 °F 38.1 °F 30.19 in SSW 7.0 mph 9.0 mph 52% 0.00 in
14:39 55.5 °F 39.6 °F 30.19 in SSW 7.0 mph 12.0 mph 55% 0.00 in
14:44 55.4 °F 40.0 °F 30.19 in SSW 5.0 mph 12.0 mph 56% 0.00 in
14:49 55.4 °F 40.9 °F 30.19 in SSW 5.0 mph 13.0 mph 58% 0.00 in
14:54 55.8 °F 40.8 °F 30.18 in SSW 5.0 mph 13.0 mph 57% 0.00 in
14:59 56.9 °F 40.4 °F 30.18 in South 5.0 mph 10.0 mph 54% 0.00 in
15:04 57.2 °F 40.2 °F 30.18 in South 9.0 mph 11.0 mph 53% 0.00 in
15:09 57.5 °F 40.5 °F 30.18 in South 7.0 mph 9.0 mph 53% 0.00 in
15:14 57.9 °F 40.4 °F 30.17 in SSE 10.0 mph 12.0 mph 52% 0.00 in
15:19 57.6 °F 39.6 °F 30.17 in South 6.0 mph 12.0 mph 51% 0.00 in
15:24 56.9 °F 39.4 °F 30.17 in South 6.0 mph 12.0 mph 52% 0.00 in
15:29 56.7 °F 40.2 °F 30.17 in South 6.0 mph 10.0 mph 54% 0.00 in
15:34 56.7 °F 40.7 °F 30.17 in SW 7.0 mph 13.0 mph 55% 0.00 in
15:39 57.3 °F 41.3 °F 30.17 in South 6.0 mph 11.0 mph 55% 0.00 in
15:44 57.1 °F 41.1 °F 30.16 in SW 8.0 mph 11.0 mph 55% 0.00 in
15:49 57.0 °F 41.0 °F 30.17 in SSW 5.0 mph 11.0 mph 55% 0.00 in
15:54 56.8 °F 41.7 °F 30.17 in SSW 5.0 mph 10.0 mph 57% 0.00 in
15:59 56.8 °F 41.7 °F 30.17 in SSW 4.0 mph 8.0 mph 57% 0.00 in
16:04 56.6 °F 41.5 °F 30.16 in SSW 4.0 mph 12.0 mph 57% 0.00 in
16:09 56.4 °F 41.3 °F 30.16 in SSW 5.0 mph 12.0 mph 57% 0.00 in
16:14 56.2 °F 41.6 °F 30.16 in SSW 7.0 mph 11.0 mph 58% 0.00 in
16:19 56.0 °F 41.4 °F 30.16 in South 3.0 mph 10.0 mph 58% 0.00 in
16:24 56.0 °F 41.9 °F 30.16 in SSW 5.0 mph 10.0 mph 59% 0.00 in
16:29 56.0 °F 41.9 °F 30.16 in SSW 5.0 mph 9.0 mph 59% 0.00 in
16:34 56.0 °F 41.9 °F 30.16 in SSW 4.0 mph 9.0 mph 59% 0.00 in
16:39 56.0 °F 41.9 °F 30.16 in South 4.0 mph 8.0 mph 59% 0.00 in
16:44 56.0 °F 41.9 °F 30.16 in South 3.0 mph 7.0 mph 59% 0.00 in
16:49 56.0 °F 41.9 °F 30.16 in South 4.0 mph 10.0 mph 59% 0.00 in
16:54 56.0 °F 41.9 °F 30.16 in South 5.0 mph 10.0 mph 59% 0.00 in
16:59 56.0 °F 42.3 °F 30.16 in SSW 6.0 mph 10.0 mph 60% 0.00 in
17:04 55.9 °F 42.2 °F 30.16 in South 5.0 mph 10.0 mph 60% 0.00 in
17:09 55.8 °F 42.1 °F 30.16 in South 4.0 mph 9.0 mph 60% 0.00 in
17:14 55.9 °F 42.2 °F 30.16 in South 4.0 mph 8.0 mph 60% 0.00 in
17:19 55.7 °F 42.0 °F 30.16 in South 5.0 mph 10.0 mph 60% 0.00 in
17:24 55.7 °F 42.0 °F 30.15 in South 5.0 mph 11.0 mph 60% 0.00 in
17:29 55.3 °F 41.6 °F 30.15 in SSW 5.0 mph 7.0 mph 60% 0.00 in
17:34 55.2 °F 42.0 °F 30.15 in South 4.0 mph 9.0 mph 61% 0.00 in
17:39 55.0 °F 41.8 °F 30.15 in SW 4.0 mph 8.0 mph 61% 0.00 in
17:44 54.9 °F 41.7 °F 30.15 in SSE 4.0 mph 9.0 mph 61% 0.00 in
17:49 54.9 °F 41.7 °F 30.15 in South 6.0 mph 8.0 mph 61% 0.00 in
17:54 54.8 °F 41.6 °F 30.15 in South 6.0 mph 9.0 mph 61% 0.00 in
17:59 54.7 °F 41.9 °F 30.15 in South 5.0 mph 9.0 mph 62% 0.00 in
18:04 54.5 °F 41.7 °F 30.15 in South 4.0 mph 9.0 mph 62% 0.00 in
18:09 54.5 °F 42.2 °F 30.15 in South 4.0 mph 11.0 mph 63% 0.00 in
18:14 54.5 °F 42.2 °F 30.15 in SSW 5.0 mph 11.0 mph 63% 0.00 in
18:19 54.5 °F 42.2 °F 30.15 in SSW 6.0 mph 11.0 mph 63% 0.00 in
18:24 54.5 °F 42.2 °F 30.15 in South 6.0 mph 13.0 mph 63% 0.00 in
18:29 54.3 °F 42.4 °F 30.15 in South 7.0 mph 11.0 mph 64% 0.00 in
18:34 54.4 °F 42.5 °F 30.15 in South 6.0 mph 14.0 mph 64% 0.00 in
18:39 54.4 °F 42.9 °F 30.15 in South 11.0 mph 16.0 mph 65% 0.00 in
18:44 54.5 °F 43.0 °F 30.14 in SSW 7.0 mph 14.0 mph 65% 0.00 in
18:49 54.3 °F 42.8 °F 30.15 in South 6.0 mph 9.0 mph 65% 0.00 in
18:54 54.3 °F 43.2 °F 30.14 in South 3.0 mph 15.0 mph 66% 0.00 in
18:59 54.2 °F 43.1 °F 30.14 in SSW 6.0 mph 12.0 mph 66% 0.00 in
19:04 54.1 °F 43.0 °F 30.14 in SSW 7.0 mph 12.0 mph 66% 0.00 in
19:09 54.1 °F 43.4 °F 30.14 in SSW 6.0 mph 14.0 mph 67% 0.00 in
19:14 54.0 °F 43.3 °F 30.15 in SSW 7.0 mph 14.0 mph 67% 0.00 in
19:19 53.9 °F 43.2 °F 30.14 in SSW 6.0 mph 13.0 mph 67% 0.00 in
19:24 53.9 °F 43.6 °F 30.15 in SSW 6.0 mph 15.0 mph 68% 0.00 in
19:29 53.9 °F 44.0 °F 30.15 in SSE 7.0 mph 17.0 mph 69% 0.00 in
19:34 53.8 °F 43.9 °F 30.15 in South 5.0 mph 13.0 mph 69% 0.00 in
19:39 53.7 °F 43.8 °F 30.15 in SSW 6.0 mph 13.0 mph 69% 0.00 in
19:44 53.6 °F 44.0 °F 30.15 in WSW 5.0 mph 15.0 mph 70% 0.00 in
19:49 53.5 °F 44.0 °F 30.14 in SSW 10.0 mph 15.0 mph 70% 0.00 in
19:54 53.4 °F 44.2 °F 30.14 in SSE 6.0 mph 14.0 mph 71% 0.00 in
19:59 53.2 °F 44.4 °F 30.14 in SSW 5.0 mph 12.0 mph 72% 0.00 in
20:04 52.9 °F 44.1 °F 30.14 in South 8.0 mph 17.0 mph 72% 0.00 in
20:09 52.8 °F 44.4 °F 30.14 in SSW 6.0 mph 17.0 mph 73% 0.00 in
20:14 52.7 °F 44.6 °F 30.14 in SSW 7.0 mph 13.0 mph 74% 0.00 in
20:19 52.6 °F 44.5 °F 30.14 in SSW 7.0 mph 13.0 mph 74% 0.00 in
20:24 52.5 °F 44.4 °F 30.14 in SSW 4.0 mph 15.0 mph 74% 0.00 in
20:29 52.3 °F 44.6 °F 30.14 in SSW 6.0 mph 15.0 mph 75% 0.00 in
20:34 52.3 °F 44.6 °F 30.14 in SSW 6.0 mph 14.0 mph 75% 0.00 in
20:39 52.2 °F 44.5 °F 30.13 in SW 9.0 mph 11.0 mph 75% 0.00 in
20:44 52.2 °F 44.5 °F 30.13 in SSW 6.0 mph 12.0 mph 75% 0.00 in
20:49 52.1 °F 44.4 °F 30.13 in South 14.0 mph 14.0 mph 75% 0.00 in
20:54 52.2 °F 44.5 °F 30.13 in SSW 6.0 mph 14.0 mph 75% 0.00 in
20:59 52.0 °F 44.3 °F 30.13 in South 5.0 mph 13.0 mph 75% 0.00 in
21:04 52.0 °F 44.7 °F 30.13 in South 3.0 mph 10.0 mph 76% 0.00 in
21:09 52.1 °F 44.4 °F 30.13 in WSW 4.0 mph 15.0 mph 75% 0.00 in
21:14 52.2 °F 44.5 °F 30.13 in South 6.0 mph 14.0 mph 75% 0.00 in
21:19 52.3 °F 44.6 °F 30.12 in SSW 6.0 mph 14.0 mph 75% 0.00 in
21:24 52.3 °F 44.6 °F 30.12 in SSW 7.0 mph 13.0 mph 75% 0.00 in
21:29 52.4 °F 44.7 °F 30.12 in SSW 7.0 mph 13.0 mph 75% 0.00 in
21:34 52.3 °F 45.0 °F 30.12 in SSW 7.0 mph 13.0 mph 76% 0.00 in
21:39 52.3 °F 45.0 °F 30.12 in South 5.0 mph 11.0 mph 76% 0.00 in
21:44 52.2 °F 44.9 °F 30.11 in South 8.0 mph 15.0 mph 76% 0.00 in
21:49 52.2 °F 44.9 °F 30.11 in SSW 6.0 mph 15.0 mph 76% 0.00 in
21:54 52.2 °F 44.9 °F 30.11 in SSW 7.0 mph 8.0 mph 76% 0.00 in
21:59 52.2 °F 44.9 °F 30.11 in SSW 5.0 mph 13.0 mph 76% 0.00 in
22:04 52.3 °F 45.0 °F 30.11 in South 4.0 mph 13.0 mph 76% 0.00 in
22:09 52.2 °F 45.2 °F 30.11 in SSW 7.0 mph 11.0 mph 77% 0.00 in
22:14 52.2 °F 45.2 °F 30.10 in SW 4.0 mph 10.0 mph 77% 0.00 in
22:19 52.3 °F 45.3 °F 30.10 in SSW 5.0 mph 14.0 mph 77% 0.00 in
22:24 52.4 °F 45.4 °F 30.10 in SSW 6.0 mph 14.0 mph 77% 0.00 in
22:29 52.5 °F 45.5 °F 30.10 in SSW 5.0 mph 13.0 mph 77% 0.00 in
22:34 52.5 °F 45.5 °F 30.10 in SSW 4.0 mph 12.0 mph 77% 0.00 in
22:39 52.5 °F 45.5 °F 30.10 in SW 6.0 mph 13.0 mph 77% 0.00 in
22:44 52.6 °F 45.6 °F 30.10 in South 4.0 mph 13.0 mph 77% 0.00 in
22:49 52.6 °F 45.6 °F 30.10 in South 4.0 mph 9.0 mph 77% 0.00 in
22:54 52.7 °F 45.7 °F 30.09 in SSW 6.0 mph 15.0 mph 77% 0.00 in
22:59 52.7 °F 45.7 °F 30.09 in SSW 6.0 mph 15.0 mph 77% 0.00 in
23:04 52.7 °F 45.7 °F 30.09 in SSW 6.0 mph 13.0 mph 77% 0.00 in
23:09 52.7 °F 46.0 °F 30.09 in South 5.0 mph 11.0 mph 78% 0.00 in
23:14 52.7 °F 46.0 °F 30.08 in South 5.0 mph 15.0 mph 78% 0.00 in
23:19 52.7 °F 46.0 °F 30.08 in SSW 6.0 mph 12.0 mph 78% 0.00 in
23:24 52.8 °F 46.1 °F 30.08 in South 3.0 mph 12.0 mph 78% 0.00 in
23:29 52.8 °F 46.1 °F 30.08 in SSW 5.0 mph 12.0 mph 78% 0.00 in
23:34 52.9 °F 46.2 °F 30.08 in SSW 6.0 mph 12.0 mph 78% 0.00 in
23:39 52.9 °F 46.2 °F 30.08 in South 6.0 mph 12.0 mph 78% 0.00 in
23:44 52.9 °F 46.2 °F 30.07 in SSW 6.0 mph 14.0 mph 78% 0.00 in
23:49 52.8 °F 46.5 °F 30.07 in South 8.0 mph 13.0 mph 79% 0.00 in
23:54 52.7 °F 46.4 °F 30.07 in SW 9.0 mph 11.0 mph 79% 0.00 in
23:59 52.9 °F 46.6 °F 30.07 in SSW 6.0 mph 15.0 mph 79% 0.00 in
Buffalo, New York, USA
Compliments of Weather Underground - 2.5 mb